[[{"header":{"parameterUnit":"m.s-1","parameterCategory":1,"la1":30.2991,"la2":30.254,"lo1":-89.0895,"lo2":-89.0444,"dy":0.0017,"dx":0.0017,"nx":28,"ny":28,"refTime":"2024-07-07T09:00:00:Z","depth":0,"parameterNumber":2,"parameterNumberName":"U-component_of_WINDS"},"data":[0,0,0,0,0,0,0,0,0,0,0,0,0,0,0,0,0,0,0,0,0,0,0,0,0,0,0,0,0,0,0,0,0,0,0,0,0,0,0,0,0,0,0,0,0,0,0,0,0,0,0,0,0,0,0,0,0,0,-3.1556,-3.1558,0,-3.1668,-3.1669,-3.1671,-3.1696,-3.1695,-3.1694,-3.1694,-3.181,-3.1813,-3.1817,0,0,0,0,0,0,0,0,0,0,0,0,0,-3.1366,-3.137,-3.1556,-3.1558,-3.1559,-3.1668,-3.1669,-3.1671,-3.1696,-3.1695,-3.1694,-3.1693,-3.1808,-3.1813,-3.1817,0,0,0,0,0,0,0,0,0,0,0,0,0,-3.1461,-3.1371,-3.1556,-3.1585,-3.1588,-3.1668,-3.1669,-3.1671,-3.1696,-3.1695,-3.1694,-3.1693,-3.1807,-3.1812,-3.1818,-3.1877,0,0,-3.1836,-3.1838,0,0,0,0,0,0,0,0,-3.1455,-3.1467,-3.1579,-3.1583,-3.1587,-3.1667,-3.1645,-3.174,-3.1696,-3.1655,-3.1693,-3.1692,-3.1763,-3.1772,-3.1796,-3.1883,-3.1888,-3.1836,-3.184,-3.1842,-3.1844,0,0,0,0,0,0,0,-3.1449,-3.1463,-3.1601,-3.1581,-3.1586,-3.1592,-3.1605,-3.1663,-3.1715,-3.1659,-3.1661,-3.1674,-3.1765,-3.179,-3.1799,-3.1889,-3.1836,-3.1841,-3.1845,-3.1847,-3.2029,-3.2031,0,0,0,0,0,0,-3.1437,-3.1457,-3.1597,-3.1604,-3.1517,-3.1597,-3.161,-3.1642,-3.1714,-3.1724,-3.1675,-3.1674,-3.1781,-3.1792,-3.1803,-3.1876,-3.1842,-3.1847,-3.1851,-3.2028,-3.203,-3.2031,0,0,0,0,0,0,-3.1433,-3.1449,-3.1593,-3.1531,-3.155,-3.1601,-3.1637,-3.1645,-3.167,-3.1726,-3.1735,-3.1691,-3.1781,-3.1795,-3.1858,-3.188,-3.185,-3.1855,-3.2026,-3.2029,-3.203,-3.2023,0,0,0,0,0,0,-3.1427,-3.1447,-3.147,-3.1531,-3.1553,-3.1645,-3.1639,-3.1648,-3.168,-3.1681,-3.1744,-3.1753,-3.1781,-3.185,-3.1864,-3.1888,-3.186,-3.2025,-3.2027,-3.203,-3.2021,-3.2024,-3.2027,0,0,0,0,0,-3.142,-3.1464,-3.1471,-3.1488,-3.1582,-3.1647,-3.1659,-3.169,-3.1682,-3.1705,-3.1741,-3.1751,-3.1876,-3.1856,-3.1872,-3.1898,-3.2023,-3.2027,-3.203,-3.202,-3.2024,-3.2027,0,0,0,0,0,0,-3.1405,-3.1473,-3.1481,-3.1546,-3.159,-3.1651,-3.1681,-3.1693,-3.1741,-3.174,-3.1777,-3.179,-3.1851,-3.1882,-3.1858,-3.1959,-3.1949,-3.1956,-3.1937,-3.1941,-3.1943,-3.1934,-3.1864,0,0,0,0,0,-3.1409,-3.1454,-3.1512,-3.1564,-3.1585,-3.1629,-3.1658,-3.1678,-3.1726,-3.1745,-3.1785,-3.1831,-3.1881,-3.1913,-3.1962,-3.2026,-3.204,-3.2052,-3.2055,-3.2057,-3.2062,-3.2098,-3.2104,-3.2042,-3.2042,-3.2042,0,0,-3.1418,-3.146,-3.1487,-3.1561,-3.1598,-3.1645,-3.1645,-3.1695,-3.173,-3.1753,-3.1814,-3.1845,-3.1899,-3.1963,-3.1994,-3.199,-3.2082,-3.2061,-3.2063,-3.2066,-3.2102,-3.2107,-3.2112,-3.2044,-3.2043,-3.2043,0,0,-3.1457,-3.1495,-3.1541,-3.1578,-3.1633,-3.1662,-3.1673,-3.1732,-3.1753,-3.1815,-3.1833,-3.1876,-3.1961,-3.1998,-3.2028,-3.2082,-3.2093,-3.2097,-3.2112,-3.2146,-3.2151,-3.2155,-3.2173,-3.2179,-3.2102,-3.2102,-3.2102,0,-3.1461,-3.1532,-3.1564,-3.1613,-3.1644,-3.1667,-3.1714,-3.1748,-3.1817,-3.1838,-3.1834,-3.194,-3.1979,-3.2051,-3.2064,-3.2088,-3.2102,-3.209,-3.2148,-3.2152,-3.2157,-3.2175,-3.2181,-3.2102,-3.2102,-3.2102,-3.2102,0,-3.1534,-3.1583,-3.1614,-3.1678,-3.1714,-3.1762,-3.1801,-3.1834,-3.1851,-3.188,-3.1943,-3.199,-3.2048,-3.2067,-3.2084,-3.2142,-3.2138,-3.214,-3.2131,-3.2162,-3.2179,-3.2186,-3.2102,-3.2102,-3.2102,-3.2102,0,0,-3.1567,-3.1647,-3.1658,-3.1687,-3.1749,-3.1788,-3.1837,-3.1893,-3.192,-3.1967,-3.2008,-3.208,-3.2082,-3.2116,-3.2138,-3.2168,-3.2206,-3.2167,-3.2169,-3.2171,-3.2271,-3.2268,-3.2275,-3.2214,-3.2216,-3.2217,-3.2266,0,-3.1613,-3.17,-3.173,-3.1802,-3.1847,-3.1869,-3.1911,-3.1954,-3.1983,-3.2026,-3.2059,-3.2108,-3.2108,-3.2128,-3.2159,-3.2195,-3.2227,-3.2192,-3.2253,-3.2255,-3.2237,-3.2284,-3.2281,-3.2325,-3.2273,-3.2274,-3.2275,0,-3.1678,-3.1725,-3.1801,-3.1856,-3.1876,-3.1914,-3.1967,-3.2008,-3.2058,-3.2077,-3.2114,-3.2134,-3.2186,-3.2175,-3.2247,-3.2223,-3.225,-3.2271,-3.2274,-3.228,-3.2266,-3.229,-3.234,-3.2346,-3.2286,-3.2285,-3.2285,0,-3.1693,-3.1774,-3.183,-3.1854,-3.1921,-3.1947,-3.1976,-3.2024,-3.2056,-3.2103,-3.2124,-3.2177,-3.2205,-3.2246,-3.228,-3.2269,-3.2348,-3.234,-3.2365,-3.2364,-3.238,-3.2378,-3.2434,-3.24,-3.24,-3.2399,-3.2399,0,-3.1741,-3.1786,-3.1837,-3.1871,-3.1923,-3.1957,-3.2007,-3.2038,-3.208,-3.2121,-3.2144,-3.2182,-3.2225,-3.2268,-3.2295,-3.235,-3.2363,-3.238,-3.2386,-3.2377,-3.2375,-3.2394,-3.2391,-3.2401,-3.2401,-3.2401,-3.24,0,-3.1765,-3.1801,-3.1863,-3.1921,-3.1936,-3.1971,-3.2021,-3.2055,-3.2085,-3.2137,-3.2151,-3.2198,-3.225,-3.2288,-3.2356,-3.2374,-3.2432,-3.244,-3.2415,-3.2418,-3.244,-3.2437,-3.2509,-3.252,-3.248,-3.248,-3.248,0,-3.1792,-3.1827,-3.1889,-3.1917,-3.1946,-3.1991,-3.2023,-3.2059,-3.2091,-3.215,-3.2177,-3.223,-3.2275,-3.2358,-3.2398,-3.245,-3.2458,-3.2479,-3.2466,-3.2455,-3.2456,-3.2453,-3.2457,-3.2481,-3.2481,-3.2481,-3.2482,0,-3.1837,-3.1853,-3.1897,-3.1948,-3.1985,-3.2027,-3.207,-3.2092,-3.2135,-3.217,-3.2223,-3.2258,-3.2327,-3.2379,-3.2435,-3.2466,-3.2481,-3.2486,-3.2494,-3.2484,-3.2468,-3.2476,-3.2419,-3.2484,-3.2483,-3.2483,-3.2483,-3.2483,-3.1863,-3.1895,-3.1942,-3.1991,-3.2026,-3.2065,-3.2099,-3.2133,-3.2178,-3.2236,-3.2254,-3.2309,-3.2357,-3.2434,-3.2465,-3.2509,-3.2508,-3.252,-3.2523,-3.2525,-3.2524,-3.2462,-3.2519,-3.2519,-3.2519,-3.2519,-3.2519,0,-3.1908,-3.1939,-3.1983,-3.2041,-3.2079,-3.209,-3.2137,-3.2168,-3.2216,-3.2259,-3.2302,-3.2363,-3.2414,-3.2459,-3.2512,-3.2538,-3.2546,-3.2551,-3.2549,-3.2555,-3.2522,-3.2509,-3.2543,-3.2543,-3.2543,-3.2543,-3.2543,-3.2543,-3.1935,-3.1989,-3.201,-3.2082,-3.2114,-3.2166,-3.2192,-3.2228,-3.2263,-3.2329,-3.2371,-3.24,-3.2443,-3.25,-3.2547,-3.2559,-3.2577,-3.258,-3.2593,-3.2561,-3.2558,-3.2555,-3.2543,-3.2584,-3.2584,-3.2622,-3.2623,-3.2623]},{"header":{"parameterUnit":"m.s-1","parameterCategory":1,"la1":30.2991,"la2":30.254,"lo1":-89.0895,"lo2":-89.0444,"dy":0.0017,"dx":0.0017,"nx":28,"ny":28,"refTime":"2024-07-07T09:00:00:Z","depth":0,"parameterNumber":3,"parameterNumberName":"V-component_of_WINDS"},"data":[0,0,0,0,0,0,0,0,0,0,0,0,0,0,0,0,0,0,0,0,0,0,0,0,0,0,0,0,0,0,0,0,0,0,0,0,0,0,0,0,0,0,0,0,0,0,0,0,0,0,0,0,0,0,0,0,0,0,7.0673,7.0673,0,7.0631,7.0631,7.063,7.0502,7.0499,7.0496,7.0493,7.0453,7.0455,7.0456,0,0,0,0,0,0,0,0,0,0,0,0,0,7.0647,7.0648,7.0673,7.0673,7.0672,7.0631,7.0631,7.063,7.0502,7.0499,7.0495,7.0492,7.0453,7.0454,7.0456,0,0,0,0,0,0,0,0,0,0,0,0,0,7.0637,7.0649,7.0674,7.0604,7.0597,7.0631,7.0631,7.063,7.0503,7.0499,7.0494,7.0491,7.0452,7.0454,7.0457,7.0556,0,0,7.0464,7.0465,0,0,0,0,0,0,0,0,7.0638,7.0638,7.0614,7.0608,7.0601,7.0567,7.0606,7.0605,7.0504,7.0539,7.0493,7.0488,7.0495,7.0493,7.0495,7.0554,7.0553,7.0464,7.0465,7.0466,7.0467,0,0,0,0,0,0,0,7.0639,7.0639,7.0657,7.0614,7.0606,7.0576,7.0569,7.0606,7.0541,7.0535,7.0526,7.0523,7.049,7.0493,7.0493,7.0552,7.0464,7.0466,7.0467,7.0468,7.0691,7.0695,0,0,0,0,0,0,7.0649,7.0641,7.0658,7.0655,7.0609,7.058,7.0573,7.0583,7.054,7.053,7.0526,7.0517,7.0491,7.049,7.0491,7.0603,7.0466,7.0469,7.047,7.0687,7.0692,7.0697,0,0,0,0,0,0,7.0649,7.0652,7.066,7.0646,7.0644,7.0584,7.0597,7.0584,7.0586,7.0533,7.0522,7.054,7.0488,7.0488,7.0541,7.06,7.047,7.0472,7.0681,7.0688,7.0695,7.083,0,0,0,0,0,0,7.0649,7.0653,7.0689,7.0647,7.0646,7.0709,7.06,7.0586,7.059,7.0577,7.0544,7.0534,7.0484,7.0538,7.0543,7.0601,7.0474,7.0676,7.0684,7.0692,7.082,7.0841,7.0858,0,0,0,0,0,7.0648,7.0729,7.0691,7.0694,7.0689,7.0713,7.0712,7.0652,7.0596,7.0632,7.0598,7.0535,7.0594,7.0544,7.0549,7.0609,7.0671,7.0682,7.0692,7.0811,7.0837,7.0858,0,0,0,0,0,0,7.0779,7.0722,7.0679,7.0749,7.0737,7.0691,7.0734,7.0681,7.0685,7.0673,7.06,7.0593,7.0656,7.0638,7.0584,7.0703,7.0622,7.0634,7.0712,7.0735,7.0754,7.0755,7.0476,0,0,0,0,0,7.0816,7.0839,7.0789,7.0855,7.0851,7.0795,7.0803,7.0758,7.0743,7.0737,7.0707,7.0696,7.0711,7.0723,7.0734,7.0818,7.0809,7.0862,7.0881,7.0897,7.0907,7.0949,7.0972,7.073,7.073,7.073,0,0,7.0893,7.0865,7.0883,7.0881,7.0866,7.0892,7.0791,7.0823,7.0841,7.0742,7.0789,7.0768,7.075,7.0819,7.0848,7.0806,7.0973,7.091,7.0924,7.0924,7.0962,7.0985,7.1006,7.0737,7.0736,7.0735,0,0,7.1044,7.1026,7.1079,7.1066,7.1045,7.1007,7.1021,7.0984,7.0965,7.1012,7.0937,7.096,7.0989,7.0979,7.0978,7.1129,7.1071,7.1136,7.1234,7.1277,7.1296,7.1312,7.1364,7.1384,7.1147,7.1147,7.1147,0,7.1142,7.1177,7.1113,7.1149,7.115,7.1062,7.1115,7.1107,7.1092,7.1095,7.1049,7.1083,7.1065,7.1129,7.1167,7.117,7.1182,7.1137,7.1298,7.1314,7.1328,7.1377,7.1397,7.1155,7.1154,7.1153,7.1152,0,7.1297,7.1323,7.1369,7.1354,7.1361,7.1407,7.1351,7.1366,7.1322,7.129,7.1339,7.1315,7.132,7.1333,7.1291,7.1392,7.1366,7.1311,7.1227,7.136,7.1405,7.1423,7.1166,7.1163,7.1161,7.1159,0,0,7.1526,7.1478,7.1495,7.1488,7.1459,7.1478,7.1521,7.1525,7.1539,7.1533,7.1565,7.1593,7.1542,7.1541,7.1497,7.1535,7.1655,7.1474,7.1473,7.1506,7.1764,7.1803,7.1826,7.1618,7.1621,7.1624,7.1764,0,7.1667,7.1733,7.1679,7.1756,7.1779,7.1698,7.1734,7.1722,7.1694,7.1711,7.168,7.17,7.1632,7.163,7.1664,7.1633,7.1705,7.1623,7.1647,7.1648,7.165,7.1849,7.1891,7.2024,7.1781,7.1784,7.1787,0,7.1839,7.184,7.1919,7.1886,7.1894,7.1928,7.1927,7.1945,7.193,7.1907,7.1907,7.1854,7.1894,7.1816,7.187,7.1815,7.1823,7.181,7.1814,7.181,7.1723,7.1849,7.2066,7.2085,7.1814,7.1812,7.181,0,7.1995,7.2016,7.2066,7.2063,7.2026,7.2052,7.2038,7.2019,7.2025,7.2026,7.203,7.2037,7.204,7.2047,7.1997,7.1945,7.2058,7.1975,7.2039,7.204,7.2063,7.2061,7.2281,7.2074,7.2074,7.2074,7.2073,0,7.2156,7.2207,7.2135,7.2165,7.2221,7.2159,7.2217,7.2195,7.2179,7.2204,7.2136,7.2162,7.2097,7.2116,7.2079,7.2128,7.2131,7.2114,7.2102,7.2118,7.212,7.2119,7.2107,7.2079,7.2078,7.2077,7.2076,0,7.2337,7.2291,7.234,7.2302,7.2294,7.2336,7.2304,7.2331,7.2301,7.2334,7.2338,7.229,7.2309,7.2262,7.2275,7.225,7.232,7.2296,7.2325,7.2316,7.2382,7.2375,7.2605,7.2632,7.2412,7.2414,7.2416,0,7.2441,7.2478,7.2445,7.2457,7.2446,7.2467,7.2473,7.2415,7.2425,7.2412,7.2441,7.2455,7.2462,7.2497,7.2464,7.2474,7.2447,7.2527,7.2448,7.2462,7.2445,7.2442,7.2445,7.2542,7.2545,7.2547,7.2549,0,7.263,7.2605,7.2616,7.262,7.263,7.263,7.2626,7.264,7.2579,7.2593,7.2612,7.2618,7.2631,7.2646,7.2649,7.2635,7.2582,7.2575,7.259,7.2604,7.2618,7.2609,7.2366,7.2569,7.2567,7.2566,7.2564,7.2564,7.2773,7.2802,7.2783,7.2798,7.2789,7.2787,7.2811,7.2783,7.2798,7.2803,7.2769,7.2795,7.2781,7.2779,7.2772,7.2792,7.2756,7.2778,7.2783,7.2788,7.2798,7.2618,7.2793,7.2793,7.2792,7.2791,7.2791,0,7.2955,7.294,7.2955,7.2951,7.2963,7.2913,7.2907,7.292,7.2944,7.2935,7.2944,7.2966,7.298,7.2949,7.2959,7.2981,7.2957,7.2986,7.2982,7.2979,7.2831,7.2816,7.3005,7.3005,7.3005,7.3005,7.3005,7.3005,7.3051,7.3098,7.3072,7.3114,7.3099,7.3123,7.3123,7.3122,7.3114,7.3141,7.3153,7.3133,7.3115,7.3123,7.3135,7.3125,7.3131,7.3167,7.315,7.3011,7.299,7.297,7.2955,7.317,7.317,7.3295,7.3296,7.3297]}]]